Location: Nairn
(57.5833°N, 3.8667°W)
Time: 16:48:33
(UTC+00:00)

Vanguard 2 - All Passes

Search period start: 04 December 2020 00:00
Search period end: 14 December 2020 00:00
Orbit: 554 x 2937 km, 32.9° (Epoch: 04 December)

Date Brightness Start Highest point End Pass type
(mag) Time Alt. Az. Time Alt. Az. Time Alt. Az.
09 Dec - 06:59:56 10° S 07:02:04 11° S 07:04:01 10° SSE visible
10 Dec - 07:15:29 10° SSW 07:19:22 12° S 07:22:43 10° SSE visible
11 Dec - 05:25:20 10° S 05:28:59 12° SSE 05:32:14 10° SSE visible
11 Dec - 07:31:56 10° SSW 07:36:39 14° S 07:40:34 10° SSE visible
12 Dec - 05:40:21 10° SSW 05:46:15 14° S 05:51:12 10° SE visible
12 Dec - 07:48:50 10° SW 07:53:53 14° S 07:58:03 10° SSE visible
13 Dec - 03:53:16 10° SSE 03:55:29 10° SSE 03:57:37 10° SE visible
13 Dec - 05:56:20 10° SSW 06:03:32 16° S 06:09:20 10° SE visible
13 Dec - 08:06:04 10° SW 08:11:04 14° SSW 08:15:12 10° SSE visible
